This demonstration page uses our WeatherBlox Daily Observations layout. Learn more.

Left ArrowRight Arrow

39.29038, -76.61219

Hourly Observations for March 7, 2015

Temp ( °F °C ) Dew Point ( °F °C ) Humidity (%) Winds ( mph kmh ) Pressure ( in mb ) Visibility ( mi km ) Precip ( " mm )
12:54 am 00:54 undefined 19 -7.2 12 -11.1 74 74 undefined N/A 30.39 1029 N/A 0.00 0.00
1:54 am 01:54 undefined 19 -7.2 12 -11.1 74 74 undefined N/A 30.35 1028 N/A 0.00 0.00
2:54 am 02:54 undefined 18 -7.8 12 -11.1 77 77 undefined N/A 30.44 1031 N/A 0.00 0.00
3:54 am 03:54 undefined 18 -7.8 11 -11.7 74 74 undefined N/A 30.30 1026 N/A 0.00 0.00
4:54 am 04:54 undefined 17 -8.3 10 -12.2 74 74 undefined N/A 30.41 1030 N/A 0.00 0.00
5:54 am 05:54 undefined 17 -8.3 10 -12.2 74 74 undefined N/A 30.30 1026 N/A 0.00 0.00
6:54 am 06:54 undefined 18 -7.8 8 -13.3 65 65 undefined N/A 30.38 1029 N/A 0.00 0.00
7:54 am 07:54 undefined 22 -5.6 11 -11.7 63 63 undefined N/A 30.34 1027 N/A 0.00 0.00
8:54 am 08:54 undefined 27 -2.8 12 -11.1 53 53 undefined N/A 30.36 1028 N/A 0.00 0.00
9:54 am 09:54 undefined 29 -1.7 13 -10.6 51 51 undefined N/A 30.35 1028 N/A 0.00 0.00
10:54 am 10:54 undefined 36 2.2 16 -8.9 44 44 undefined N/A 30.34 1027 N/A 0.00 0.00
11:54 am 11:54 undefined 40 4.4 16 -8.9 38 38 undefined N/A 30.29 1026 N/A 0.00 0.00
12:54 pm 12:54 undefined 43 6.1 13 -10.6 29 29 undefined N/A 30.25 1024 N/A 0.00 0.00
1:54 pm 13:54 undefined 45 7.2 16 -8.9 31 31 undefined N/A 30.19 1022 N/A 0.00 0.00
2:54 pm 14:54 undefined 45 7.2 19 -7.2 35 35 undefined N/A 30.16 1022 N/A 0.00 0.00
3:54 pm 15:54 undefined 45 7.2 18 -7.8 34 34 undefined N/A 30.12 1020 N/A 0.00 0.00
4:54 pm 16:54 undefined 46 7.8 20 -6.7 35 35 undefined N/A 30.09 1019 N/A 0.00 0.00
5:54 pm 17:54 undefined 46 7.8 22 -5.6 38 38 undefined N/A 30.10 1019 N/A 0.00 0.00
6:54 pm 18:54 undefined 42 5.6 25 -3.9 51 51 undefined N/A 30.10 1019 N/A 0.00 0.00
7:54 pm 19:54 undefined 38 3.3 26 -3.3 62 62 undefined N/A 30.09 1019 N/A 0.00 0.00
8:54 pm 20:54 undefined 37 2.8 27 -2.8 67 67 undefined N/A 30.08 1019 N/A 0.00 0.00
9:54 pm 21:54 undefined 35 1.7 27 -2.8 72 72 undefined N/A 30.08 1019 N/A 0.00 0.00
10:54 pm 22:54 undefined 39 3.9 27 -2.8 62 62 undefined N/A 30.09 1019 N/A 0.00 0.00
11:54 pm 23:54 undefined 40 4.4 26 -3.3 58 58 undefined N/A 30.09 1019 N/A 0.00 0.00

Powered by AerisWeather